Weather History for Milwaukee, WI

Change the Weather History Date:

Monday, March 10, 2014

  Actual Average Record
Temperature  
Mean Temperature 47 °F 33 °F  
Max Temperature 55 °F 40 °F 68 °F (1879)
Min Temperature 39 °F 26 °F -3 °F (1877)
Degree Days  
Heating Degree Days 18 32  
Month to date heating degree days 430 335  
Since 1 July heating degree days 6086 5315  
Cooling Degree Days 0 0  
Month to date cooling degree days 0 0  
Year to date cooling degree days 0 0  
Moisture  
Dew Point 33 °F    
Average Humidity 61    
Maximum Humidity 76    
Minimum Humidity 46    
Precipitation  
Precipitation 0.00 in 0.06 in 1.01 in (1901)
Month to date precipitation 0.37 0.64  
Year to date precipitation 3.11 4.05  
Snow  
Snow 0.00 in 0.20 in 5.40 in (1924)
Month to date snowfall 5.7 3.1  
Since 1 July snowfall 62.5 40.9  
Snow Depth 5.00 in    
Sea Level Pressure  
Sea Level Pressure 29.66 in    
Wind  
Wind Speed 10 mph (WSW)    
Max Wind Speed 17 mph    
Max Gust Speed 23 mph    
Visibility 10 miles    
Events      
T = Trace of Precipitation, MM = Missing Value Source: NWS Daily Summary

Daily Weather History Graph

Daily Weather History Graph

Search for Another Location

Airport:

Trip Planner

Search our weather history database for the weather conditions in past years. The results will help you decide how hot, cold, wet, or windy it might be!

Date:

Astronomy

Mar. 10, 2014 Rise Set
Actual Time 7:12 AM CDT 6:52 PM CDT
Civil Twilight 6:44 AM CDT 7:20 PM CDT
Nautical Twilight 6:11 AM CDT 7:53 PM CDT
Astronomical Twilight 5:38 AM CDT 8:26 PM CDT
Moon 1:29 PM CDT (3/10) 3:30 AM CDT (3/10)
Length of Visible Light 12h 36m
Length of Day
11h 39m
Waxing Gibbous, 70% of the Moon is Illuminated
Mar 10
Waxing Gibbous
Mar 16
Full
Mar 23
Last Quarter
Mar 30
New
Apr 7
First Quarter

Hourly Weather History & Observations

Time (CDT) Temp. Windchill Dew Point Humidity Pressure Visibility Wind Dir Wind Speed Gust Speed Precip Events Conditions
12:52 AM 41.0 °F 33.1 °F 32.0 °F 70% 29.73 in 10.0 mi WSW 15.0 mph - N/A   Overcast
1:52 AM 41.0 °F 33.5 °F 32.0 °F 70% 29.71 in 10.0 mi WSW 13.8 mph - N/A   Mostly Cloudy
2:52 AM 42.1 °F 36.1 °F 32.0 °F 67% 29.69 in 10.0 mi West 10.4 mph - N/A   Mostly Cloudy
3:52 AM 41.0 °F 35.2 °F 32.0 °F 70% 29.70 in 10.0 mi West 9.2 mph - N/A   Mostly Cloudy
4:52 AM 41.0 °F 36.4 °F 32.0 °F 70% 29.69 in 10.0 mi West 6.9 mph - N/A   Mostly Cloudy
5:52 AM 39.9 °F 34.5 °F 32.0 °F 73% 29.68 in 10.0 mi WSW 8.1 mph - N/A   Mostly Cloudy
6:52 AM 39.0 °F 32.3 °F 32.0 °F 76% 29.68 in 10.0 mi WSW 10.4 mph - N/A   Partly Cloudy
7:52 AM 39.9 °F 35.1 °F 32.0 °F 73% 29.68 in 10.0 mi WSW 6.9 mph - N/A   Partly Cloudy
8:52 AM 42.1 °F 37.1 °F 32.0 °F 67% 29.67 in 10.0 mi WSW 8.1 mph - N/A   Partly Cloudy
9:52 AM 45.0 °F 39.7 °F 32.0 °F 60% 29.66 in 10.0 mi WSW 10.4 mph - N/A   Partly Cloudy
10:52 AM 46.9 °F - 32.0 °F 56% 29.64 in 10.0 mi WSW 15.0 mph - N/A   Partly Cloudy
11:52 AM 48.9 °F - 32.0 °F 52% 29.64 in 10.0 mi WSW 12.7 mph - N/A   Mostly Cloudy
12:52 PM 51.1 °F - 33.1 °F 50% 29.63 in 10.0 mi WSW 13.8 mph - N/A   Mostly Cloudy
1:52 PM 53.1 °F - 33.1 °F 47% 29.61 in 10.0 mi WSW 12.7 mph - N/A   Mostly Cloudy
2:52 PM 54.0 °F - 34.0 °F 47% 29.59 in 10.0 mi WSW 13.8 mph - N/A   Mostly Cloudy
3:52 PM 54.0 °F - 34.0 °F 47% 29.60 in 10.0 mi WSW 13.8 mph - N/A   Mostly Cloudy
4:52 PM 53.1 °F - 34.0 °F 48% 29.61 in 10.0 mi WSW 11.5 mph - N/A   Mostly Cloudy
5:52 PM 50.0 °F - 34.0 °F 54% 29.62 in 10.0 mi WSW 12.7 mph - N/A   Mostly Cloudy
6:52 PM 46.9 °F - 33.1 °F 59% 29.66 in 10.0 mi WSW 8.1 mph - N/A   Mostly Cloudy
7:52 PM 46.0 °F 43.1 °F 33.1 °F 61% 29.67 in 10.0 mi WSW 5.8 mph - N/A   Mostly Cloudy
8:52 PM 45.0 °F 41.2 °F 33.1 °F 63% 29.67 in 10.0 mi WSW 6.9 mph - N/A   Mostly Cloudy
9:52 PM 44.1 °F 39.5 °F 34.0 °F 68% 29.68 in 10.0 mi WSW 8.1 mph - N/A   Overcast
10:52 PM 44.1 °F 40.8 °F 34.0 °F 68% 29.67 in 10.0 mi West 5.8 mph - N/A   Overcast
11:52 PM 44.1 °F 39.5 °F 34.0 °F 68% 29.67 in 10.0 mi West 8.1 mph - N/A   Overcast